星链-31941 (STARLINK-31941 )

导读

STARLINK-31941是美国星链项目的一颗卫星,于2024年5月24日发射入轨,归属于SpaceX公司的星链互联网星座网络。星链星座旨在为全球用户提供低延迟、高速率的宽带互联网服务,该卫星的发射进一步扩充了星链低轨星座的规模,助力星座覆盖能力与服务能力提升。

Basic Information
目录编号:
59866
目录名称:
STARLINK-31941
国际标识:
2024-098J
轨道中心:
EARTH
卫星名称:
星链-31941
卫星全名:
星链-31941 (STARLINK-31941 )
卫星状态:
在轨 (已飞行833 天)
发射日期:
2024-05-24 UTC
国别 :
美国 (US)
星等 :
--
Orbit Information
数据来源 国际轨道数据 AOE轨道数据
星历时间 2026-09-03T20:26:08+0800
22小时前
查看轨道信息
2026-08-30T01:00:00+0800
5天前
查看轨道信息
半长轴 6861.133km 6861.133km
偏心率 0.0001285 0.0000461
轨道倾角 43.003° 43.004°
近地点辐角 259.190° 317.175°
升交点赤经 335.968° 3.130°
平近点角 100.881° 201.418°
近地点 482.114km 482.679km
远地点 483.878km 483.313km
周期 94.266分钟 94.266分钟
每日圈数 15.27598 15.275978
Detailed Information
固有亮度:
5
最大亮度:
1.5
卫星平台:
Starlink v2.0 mini
覆盖范围:
全球
运营商:
太空探索技术公司
运营商所在国:
美国
制造商(研发单位):
太空探索技术公司
制造商所在国:
美国
使用方式:
暂无
Satellite Introduction
星链(Starlink)计划是由太空探索技术公司(SpaceX)提出的一个巨型低轨卫星互联网星座项目,计划在2019年至2024年间在太空搭建由约1.2万颗卫星组成的“星链”网络,其中1584颗将部署在地球上空550千米处的近地轨道,并从2020年开始工作。该卫星仍在工作。
2D Orbit Map
3D Orbit Map
Orbit Altitude Analysis Chart
Orbit Inclination Analysis Chart
Orbit Comprehensive Analysis Chart
View Comprehensive Chart
Conjunction Data List
Event ID Objects TCA Miss Dist (km) Collision Risk Probability Collision Risk Index (CRI) Action
CDM_260827-182505-986606-644321
2026-08-27T
18:25:49+0000
0.145 km
中距离
5.514343E-4 高风险 0.9
CDM_260905-233505-986606-329721
OBJECT G (63297)
2026-09-05T
23:35:38+0000
2.495 km
极远距离
1.410567E-6 低风险 0.38